CO-58
1 28895U 05043F 09245.72449255 .00000221 00000-0 55618-4 0 3855
2 28895 098.0469 134.1250 0018888 104.6264 255.7032 14.59792155205045
FALCON
1 30776U 07006E 09245.67217934 .00000232 00000-0 19849-4 0 06589
2 30776 035.4350 349.2776 0001468 282.8359 077.2193 15.03293840136766
MAST
1 31126U 07012K 09246.58105012 -.00000001 00000-0 10329-4 0 6769
2 31126 097.9816 297.7669 0095444 037.0922 323.6831 14.53514252126423
CAPE1
1 31130U 07012P 09245.11238245 .00000002 00000-0 11038-4 0 06945
2 31130 097.9812 294.3792 0103735 047.5354 313.4554 14.52082578125857
COMPASS
1 32787U 08021E 09245.29362386 .00000224 00000-0 35179-4 0 04629
2 32787 097.9363 308.4411 0016617 138.7542 221.4912 14.81648030072867
AAUSAT2
1 32788U 08021F 09245.66023417 .00000005 00000-0 74315-5 0 04500
2 32788 097.9350 308.8747 0016124 138.2193 222.0248 14.81771539072927
DO-64
1 32789U 08021G 09245.81711938 .00000423 00000-0 60298-4 0 4632
2 32789 097.9393 309.2434 0016400 136.2664 223.9845 14.81780080 72947
CO-66
1 32791U 08021J 09245.21039378 .00000168 00000-0 28197-4 0 4447
2 32791 097.9379 308.3913 0016618 136.8040 223.4472 14.81471287 72814
RS-30
1 32953U 08025A 09245.86224501 .00000010 00000-0 00000 0 0 3955
2 32953 082.4996 208.3072 0020033 013.4639 346.6973 12.43002898 58040
TACSAT-3
1 35001U 09028A 09245.88643891 .00002099 00000-0 58414-4 0 01005
2 35001 040.4548 135.9216 0024655 016.2996 343.8611 15.39101085016329
PHARMSAT
1 35002U 09028B 09245.89853753 .00001660 00000-0 46298-4 0 00938
2 35002 040.4677 135.2296 0026883 020.7891 339.4037 15.39855246016321
HAWKSAT1
1 35003U 09028C 09246.90045768 .00003525 00000-0 89474-4 0 903
2 35003 040.4601 128.6556 0027447 031.3729 328.8721 15.40534533 16494
CP6
1 35004U 09028D 09245.92749964 .00004255 00000-0 10657-3 0 00945
2 35004 040.4604 134.4848 0027908 024.2914 335.9249 15.40573763016331
AEROCUB3
1 35005U 09028E 09245.94011338 .00004062 00000-0 10273-3 0 00844
2 35005 040.4726 134.7010 0027485 021.6736 338.5250 15.40374909016336
DRAGNSAT
1 35690U 09038B 09245.46831881 .00021964 00000-0 10978-3 0 00476
2 35690 051.6405 268.1637 0002165 179.8406 180.2600 15.81759814005379
POLLUX
1 35693U 09038E 09245.47951021 .00020334 00000-0 10461-3 0 00353
2 35693 051.6406 268.2443 0003795 116.7688 243.3699 15.81185727005343
CASTOR
1 35694U 09038F 09245.48778335 .00010971 00000-0 59863-4 0 00345
2 35694 051.6412 268.3064 0004142 128.4998 231.6375 15.80534110005346
